[[{"header":{"parameterUnit":"m.s-1","parameterCategory":1,"la1":30.2992,"la2":30.254,"lo1":-89.0895,"lo2":-89.0443,"dy":0.0025,"dx":0.0025,"nx":19,"ny":19,"refTime":"2026-04-16T21:00:00:Z","depth":0,"parameterNumber":2,"parameterNumberName":"U-component_of_WINDS"},"data":[0,0,0,0.9834,0.9838,1.0071,1.0072,1.0351,1.0353,0,0,0,0,0,0,0,0,0,0,0,0.9752,0.9754,0.9833,0.9839,1.0071,1.0072,1.0351,1.0353,0,0,0,0,0,0,0,0,0,0,0,0.9752,0.9753,0.9755,0.984,1.0071,1.0072,1.035,1.0181,0,0,0,0,0,0,0,0,0,0,0.9959,0.9871,0.9753,0.9755,0.9841,1.0071,1.0073,1.0174,1.0192,1.0237,0,1.0273,0,1.0317,1.0371,1.0371,0,0,0,0.9848,0.9855,0.993,0.9755,0.9843,1.007,0.9969,1.0184,1.0205,1.0261,1.0277,1.0288,1.0322,1.0372,1.0374,1.0601,1.0602,0,0,0.9836,0.9787,0.9915,0.9942,0.9904,0.9962,0.9976,1.0197,1.0211,1.0278,1.0295,1.0327,1.0374,1.0376,1.0601,1.0601,0,0,0,0.9792,0.9778,0.9847,0.993,0.9974,0.9968,0.9985,1.0202,1.0228,1.0298,1.033,1.0375,1.0379,1.06,1.0601,1.0585,0,0,0,0.9785,0.9753,0.9841,0.9814,0.9969,1.009,0.9984,1.0213,1.0239,1.0328,1.0376,1.0381,1.0599,1.0601,1.0584,1.0585,0,0,0,0.9741,0.9748,0.9777,0.9811,0.9909,1.0088,1.0128,1.022,1.0258,1.0372,1.0382,1.0599,1.06,1.0583,1.0584,1.0632,0,0,0,0.9681,0.9759,0.9776,0.9876,0.9907,1.0076,1.0127,1.0255,1.035,1.0377,1.06,1.0601,1.0583,1.0584,1.0631,1.0664,1.0673,0,0,0.9753,0.9766,0.9828,0.9851,1.0004,1.0044,1.0197,1.0329,1.0384,1.0526,1.0532,1.0584,1.0584,1.0632,1.074,1.0746,0,0,0,0.9835,0.9879,0.993,1.0019,1.0122,1.0212,1.0326,1.0376,1.0499,1.0447,1.0616,1.0617,1.0647,1.0665,1.0671,1.0701,1.0607,1.0607,1.0607,0.9867,0.9933,1.0042,1.0137,1.0222,1.034,1.0416,1.0504,1.0545,1.0584,1.0627,1.0684,1.0703,1.0708,1.0738,1.0649,1.0649,1.0649,1.0649,0.9978,1.0052,1.0107,1.0232,1.0302,1.0408,1.0526,1.0552,1.0662,1.0657,1.0687,1.0676,1.0713,1.0743,1.0649,1.0649,1.0649,1.0649,1.0649,1.0007,1.0054,1.0113,1.0249,1.0347,1.0441,1.0544,1.0605,1.0662,1.0692,1.0744,1.0745,1.0754,1.0713,1.0713,1.0713,1.0713,1.0713,1.0714,1.0013,1.008,1.016,1.0277,1.0343,1.0437,1.0558,1.0625,1.0715,1.0751,1.0752,1.079,1.0704,1.0682,1.0717,1.0716,1.0716,1.0716,1.0715,1.0101,1.0092,1.0213,1.028,1.0424,1.0518,1.0594,1.0726,1.079,1.0839,1.0873,1.0799,1.0817,1.0813,1.0794,1.0857,1.0857,1.0857,1.0857,1.0126,1.0141,1.0281,1.0383,1.0489,1.0571,1.0709,1.0805,1.0903,1.0947,1.0947,1.0928,1.0921,1.0943,1.0936,1.092,1.1013,1.1014,1.1014,1.0185,1.0213,1.0318,1.0413,1.0531,1.0631,1.0764,1.088,1.0988,1.1021,1.0983,1.0977,1.0947,1.0933,1.0964,1.0952,1.0924,0,0]},{"header":{"parameterUnit":"m.s-1","parameterCategory":1,"la1":30.2992,"la2":30.254,"lo1":-89.0895,"lo2":-89.0443,"dy":0.0025,"dx":0.0025,"nx":19,"ny":19,"refTime":"2026-04-16T21:00:00:Z","depth":0,"parameterNumber":3,"parameterNumberName":"V-component_of_WINDS"},"data":[0,0,0,1.5762,1.5766,1.5929,1.5929,1.6126,1.6127,0,0,0,0,0,0,0,0,0,0,0,1.5702,1.5703,1.5762,1.5766,1.5929,1.5929,1.6125,1.6127,0,0,0,0,0,0,0,0,0,0,0,1.5702,1.5703,1.5704,1.5766,1.5928,1.593,1.6125,1.6008,0,0,0,0,0,0,0,0,0,0,1.5852,1.5783,1.5703,1.5704,1.5767,1.5928,1.593,1.6002,1.6015,1.6045,0,1.6065,0,1.6099,1.6139,1.614,0,0,0,1.5776,1.5773,1.5827,1.5704,1.5769,1.5928,1.5858,1.601,1.6024,1.6062,1.6068,1.6075,1.6102,1.614,1.6141,1.6271,1.6271,0,0,1.5767,1.5726,1.5817,1.5835,1.5804,1.5853,1.5863,1.6018,1.6024,1.6068,1.608,1.6105,1.6142,1.6143,1.6271,1.6271,0,0,0,1.5734,1.572,1.577,1.5827,1.5857,1.5857,1.5869,1.6017,1.6037,1.6083,1.6107,1.6143,1.6145,1.6271,1.6271,1.6236,0,0,0,1.573,1.57,1.5766,1.5743,1.5853,1.5938,1.5864,1.6026,1.6045,1.6106,1.6143,1.6147,1.6271,1.6271,1.6237,1.6227,0,0,0,1.5696,1.5697,1.5715,1.574,1.5808,1.5936,1.5965,1.6031,1.6059,1.614,1.6147,1.6271,1.6271,1.6237,1.6228,1.6249,0,0,0,1.5649,1.5684,1.5714,1.5763,1.5806,1.5911,1.5965,1.6047,1.6111,1.6144,1.6271,1.6271,1.6237,1.6229,1.625,1.626,1.626,0,0,1.567,1.5685,1.5717,1.5749,1.5837,1.589,1.5976,1.6077,1.6124,1.6221,1.6225,1.6236,1.6228,1.6249,1.6272,1.6271,0,0,0,1.571,1.5732,1.5765,1.5822,1.5896,1.5961,1.6052,1.609,1.6173,1.6163,1.6251,1.6247,1.6262,1.6269,1.6268,1.6284,1.6272,1.6272,1.6272,1.5681,1.5737,1.5794,1.5869,1.5925,1.6018,1.607,1.6137,1.618,1.6199,1.6228,1.6235,1.6241,1.6241,1.6257,1.6238,1.6238,1.6238,1.6237,1.5718,1.5759,1.5812,1.5886,1.5946,1.6012,1.6104,1.6132,1.6204,1.6217,1.6233,1.6243,1.6239,1.6256,1.6235,1.6236,1.6236,1.6236,1.6236,1.5706,1.5735,1.5777,1.5866,1.593,1.6007,1.6073,1.6127,1.6179,1.6194,1.6232,1.6233,1.6241,1.6208,1.6208,1.6208,1.6208,1.6208,1.6208,1.5677,1.5726,1.5772,1.5854,1.5898,1.5964,1.6058,1.6105,1.6172,1.6206,1.6207,1.6249,1.6227,1.622,1.6209,1.6208,1.6208,1.6208,1.6208,1.5694,1.5699,1.577,1.5814,1.5916,1.5976,1.6043,1.6134,1.6182,1.6213,1.6252,1.6226,1.6246,1.6247,1.6243,1.6238,1.6238,1.6238,1.6238,1.5685,1.5699,1.5784,1.5852,1.5924,1.5992,1.6076,1.6151,1.623,1.6264,1.6272,1.6271,1.6269,1.6291,1.6291,1.6287,1.6294,1.6294,1.6294,1.57,1.5723,1.5781,1.5854,1.5938,1.601,1.6091,1.6171,1.6262,1.6297,1.6292,1.6289,1.6287,1.6283,1.6318,1.6317,1.6312,0,0]}]]